PGT3013 LTDB-LTBJ

Flight info

Callsign PGT3013
Flight time 1h 15m
Altitude 38000
Route MANAZ UW74 MUT UR55 AYT UT489 KAVAK UT283 OKESA
Aircraft A20N/M-SDE2E3FGHIRWXY/LB1

Departure

Time 2026-05-04 19:45
Airport Çukurova International Airport (LTDB)

Arrival

Time 2026-05-04 21:00
Airport Adnan Menderes International Airport (LTBJ)
Time Latitude Longitude Altitude Speed Heading
2026-05-04 19:11 36.90053 35.06933 55 ft 0 kts 302°
2026-05-04 19:35 36.90048 35.06942 54 ft 4 kts 303°
2026-05-04 19:35 36.90034 35.06968 52 ft 2 kts 303°
2026-05-04 19:35 36.90025 35.06992 53 ft 4 kts 253°
2026-05-04 19:36 36.90039 35.07014 46 ft 4 kts 212°
2026-05-04 19:36 36.90061 35.07031 53 ft 2 kts 212°
2026-05-04 19:36 36.90062 35.07032 53 ft 0 kts 212°
2026-05-04 19:39 36.90052 35.07024 48 ft 4 kts 212°
2026-05-04 19:39 36.90012 35.06995 52 ft 10 kts 211°
2026-05-04 19:40 36.89933 35.06952 50 ft 15 kts 191°
2026-05-04 19:40 36.89830 35.06885 55 ft 19 kts 211°
2026-05-04 19:40 36.89706 35.06788 50 ft 23 kts 213°
2026-05-04 19:40 36.89591 35.06697 52 ft 14 kts 212°
2026-05-04 19:41 36.89509 35.06741 54 ft 16 kts 121°
2026-05-04 19:41 36.89445 35.06870 53 ft 19 kts 122°
2026-05-04 19:41 36.89354 35.06983 54 ft 20 kts 183°
2026-05-04 19:41 36.89224 35.06895 56 ft 23 kts 211°
2026-05-04 19:42 36.89080 35.06786 53 ft 25 kts 211°
2026-05-04 19:42 36.88923 35.06665 55 ft 28 kts 211°
2026-05-04 19:42 36.88751 35.06534 56 ft 30 kts 211°
2026-05-04 19:42 36.88568 35.06393 55 ft 32 kts 210°
2026-05-04 19:43 36.88375 35.06248 50 ft 33 kts 211°
2026-05-04 19:43 36.88184 35.06100 53 ft 32 kts 211°
2026-05-04 19:43 36.88019 35.05974 52 ft 17 kts 213°
2026-05-04 19:43 36.87928 35.05956 52 ft 14 kts 149°
2026-05-04 19:44 36.87873 35.06069 54 ft 17 kts 120°
2026-05-04 19:44 36.87898 35.06164 53 ft 9 kts 32°
2026-05-04 19:44 36.87970 35.06219 56 ft 33 kts 32°
2026-05-04 19:44 36.88375 35.06529 57 ft 101 kts 32°
2026-05-04 19:45 36.89131 35.07106 72 ft 150 kts 32°
2026-05-04 19:45 36.90007 35.07766 664 ft 146 kts 31°
2026-05-04 19:45 36.90883 35.08405 1325 ft 143 kts 31°
2026-05-04 19:45 36.91726 35.09053 1925 ft 147 kts 32°
2026-05-04 19:46 36.92645 35.09774 2291 ft 165 kts 32°
2026-05-04 19:46 36.93680 35.10576 2674 ft 185 kts 32°
2026-05-04 19:46 36.94840 35.11463 3110 ft 207 kts 32°
2026-05-04 19:46 36.96241 35.12169 3552 ft 231 kts
2026-05-04 19:47 36.97886 35.11910 4253 ft 250 kts 336°
2026-05-04 19:47 36.99287 35.10570 5204 ft 260 kts 308°
2026-05-04 19:47 37.00290 35.08662 6297 ft 265 kts 301°
2026-05-04 19:47 37.01231 35.06653 7329 ft 270 kts 300°
2026-05-04 19:48 37.02184 35.04599 8364 ft 276 kts 300°
2026-05-04 19:48 37.03124 35.02485 9420 ft 281 kts 292°
2026-05-04 19:48 37.03570 35.00093 10365 ft 288 kts 272°
2026-05-04 19:48 37.03382 34.97521 10929 ft 307 kts 260°
2026-05-04 19:49 37.03022 34.94827 11406 ft 327 kts 259°
2026-05-04 19:49 37.02636 34.91985 12274 ft 333 kts 259°
2026-05-04 19:49 37.02159 34.89146 13322 ft 334 kts 253°
2026-05-04 19:49 37.01523 34.86337 14272 ft 336 kts 253°
2026-05-04 19:50 37.00890 34.83498 15135 ft 340 kts 254°
2026-05-04 19:50 37.00256 34.80631 15985 ft 344 kts 254°
2026-05-04 19:50 36.99616 34.77734 16819 ft 347 kts 254°
2026-05-04 19:50 36.98969 34.74802 17658 ft 351 kts 254°
2026-05-04 19:51 36.98313 34.71838 18425 ft 356 kts 254°
2026-05-04 19:51 36.97648 34.68838 19131 ft 359 kts 254°
2026-05-04 19:51 36.96979 34.65824 19917 ft 360 kts 254°
2026-05-04 19:51 36.96305 34.62788 20640 ft 363 kts 254°
2026-05-04 19:52 36.95628 34.59745 21415 ft 364 kts 254°
2026-05-04 19:52 36.94945 34.56680 22152 ft 367 kts 254°
2026-05-04 19:52 36.94260 34.53610 22949 ft 366 kts 254°
2026-05-04 19:52 36.93583 34.50582 23662 ft 368 kts 254°
2026-05-04 19:53 36.92889 34.47483 24232 ft 371 kts 255°
2026-05-04 19:53 36.92188 34.44356 24718 ft 376 kts 255°
2026-05-04 19:53 36.91603 34.41158 25258 ft 379 kts 261°
2026-05-04 19:53 36.91315 34.37879 25844 ft 381 kts 266°
2026-05-04 19:54 36.91189 34.34564 26385 ft 383 kts 266°
2026-05-04 19:54 36.91054 34.31216 26847 ft 387 kts 266°
2026-05-04 19:54 36.90912 34.27838 27365 ft 390 kts 266°
2026-05-04 19:54 36.90766 34.24443 27853 ft 393 kts 266°
2026-05-04 19:55 36.90618 34.21024 28347 ft 396 kts 267°
2026-05-04 19:55 36.90468 34.17565 28681 ft 402 kts 267°
2026-05-04 19:55 36.90315 34.14073 29150 ft 404 kts 267°
2026-05-04 19:55 36.90162 34.10556 29603 ft 406 kts 267°
2026-05-04 19:56 36.90006 34.07025 30047 ft 407 kts 267°
2026-05-04 19:56 36.89849 34.03490 30459 ft 408 kts 267°
2026-05-04 19:56 36.89690 33.99927 30765 ft 413 kts 267°
2026-05-04 19:56 36.89528 33.96329 31107 ft 416 kts 267°
2026-05-04 19:57 36.89363 33.92715 31433 ft 419 kts 267°
2026-05-04 19:57 36.89198 33.89114 31792 ft 421 kts 267°
2026-05-04 19:57 36.89028 33.85418 32235 ft 421 kts 267°
2026-05-04 19:57 36.88861 33.81809 32661 ft 421 kts 267°
2026-05-04 19:58 36.88692 33.78162 33087 ft 421 kts 267°
2026-05-04 19:58 36.88520 33.74508 33498 ft 421 kts 267°
2026-05-04 19:58 36.88348 33.70852 33899 ft 421 kts 267°
2026-05-04 19:58 36.88174 33.67201 34229 ft 422 kts 267°
2026-05-04 19:59 36.87998 33.63523 34441 ft 425 kts 267°
2026-05-04 19:59 36.87820 33.59843 34746 ft 426 kts 267°
2026-05-04 19:59 36.87641 33.56139 35044 ft 426 kts 267°
2026-05-04 19:59 36.87462 33.52440 35331 ft 427 kts 267°
2026-05-04 20:00 36.87281 33.48748 35676 ft 426 kts 267°
2026-05-04 20:00 36.87099 33.45053 35956 ft 427 kts 267°
2026-05-04 20:00 36.86914 33.41346 36203 ft 427 kts 267°
2026-05-04 20:00 36.86728 33.37641 36467 ft 428 kts 267°
2026-05-04 20:01 36.86542 33.33933 36722 ft 429 kts 267°
2026-05-04 20:01 36.86357 33.30207 36977 ft 430 kts 268°
2026-05-04 20:01 36.86374 33.26483 37226 ft 430 kts 273°
2026-05-04 20:01 36.86507 33.22791 37479 ft 430 kts 272°
2026-05-04 20:02 36.86637 33.19050 37729 ft 431 kts 272°
2026-05-04 20:02 36.86764 33.15292 37905 ft 432 kts 272°
2026-05-04 20:02 36.86886 33.11538 37941 ft 432 kts 273°
2026-05-04 20:03 36.87126 33.04049 37953 ft 431 kts 273°
2026-05-04 20:03 36.87361 32.96611 37952 ft 431 kts 273°
2026-05-04 20:04 36.87592 32.89122 37956 ft 431 kts 273°
2026-05-04 20:04 36.87817 32.81656 37952 ft 429 kts 273°
2026-05-04 20:05 36.88036 32.74232 37942 ft 427 kts 273°
2026-05-04 20:05 36.88250 32.66817 37936 ft 426 kts 273°
2026-05-04 20:06 36.88460 32.59387 37964 ft 429 kts 273°
2026-05-04 20:06 36.88665 32.51968 37957 ft 427 kts 273°
2026-05-04 20:07 36.88867 32.44544 37957 ft 427 kts 273°
2026-05-04 20:07 36.89066 32.37175 37955 ft 427 kts 273°
2026-05-04 20:08 36.89262 32.29758 37962 ft 426 kts 273°
2026-05-04 20:08 36.89452 32.22391 37927 ft 423 kts 273°
2026-05-04 20:09 36.89636 32.15063 37942 ft 424 kts 273°
2026-05-04 20:09 36.89820 32.07639 37941 ft 428 kts 273°
2026-05-04 20:10 36.89995 32.00234 37942 ft 425 kts 273°
2026-05-04 20:10 36.90137 31.94085 37924 ft 426 kts 273°
2026-05-04 20:11 36.90290 31.86686 37919 ft 426 kts 273°
2026-05-04 20:11 36.90436 31.79283 37922 ft 426 kts 273°
2026-05-04 20:12 36.90447 31.71868 37931 ft 428 kts 269°
2026-05-04 20:12 36.90169 31.63236 37914 ft 426 kts 269°
2026-05-04 20:13 36.89974 31.57033 37913 ft 427 kts 269°
2026-05-04 20:13 36.89737 31.49665 37919 ft 426 kts 269°
2026-05-04 20:14 36.89508 31.42246 37912 ft 428 kts 271°
2026-05-04 20:14 36.89771 31.34796 37929 ft 429 kts 275°
2026-05-04 20:15 36.90101 31.27360 37938 ft 429 kts 275°
2026-05-04 20:15 36.90420 31.19923 37940 ft 428 kts 275°
2026-05-04 20:16 36.90734 31.12498 37943 ft 428 kts 275°
2026-05-04 20:16 36.91044 31.05086 37949 ft 427 kts 275°
2026-05-04 20:17 36.91350 30.97676 37942 ft 427 kts 275°
2026-05-04 20:17 36.91649 30.90277 37953 ft 426 kts 275°
2026-05-04 20:18 36.91965 30.82874 37953 ft 426 kts 277°
2026-05-04 20:18 36.92936 30.75609 37952 ft 424 kts 285°
2026-05-04 20:19 36.94512 30.68515 37952 ft 423 kts 287°
2026-05-04 20:19 36.96079 30.61410 37961 ft 424 kts 287°
2026-05-04 20:20 36.97642 30.54300 37963 ft 424 kts 287°
2026-05-04 20:20 36.99195 30.47219 37981 ft 425 kts 287°
2026-05-04 20:21 37.00755 30.40088 37992 ft 425 kts 287°
2026-05-04 20:21 37.03092 30.29367 38029 ft 426 kts 286°
2026-05-04 20:22 37.04645 30.22212 38029 ft 424 kts 286°
2026-05-04 20:22 37.06184 30.15096 38043 ft 424 kts 286°
2026-05-04 20:23 37.07722 30.07961 38039 ft 423 kts 287°
2026-05-04 20:23 37.09253 30.00839 38051 ft 423 kts 287°
2026-05-04 20:24 37.10770 29.93765 38054 ft 423 kts 287°
2026-05-04 20:24 37.12292 29.86637 38050 ft 423 kts 287°
2026-05-04 20:25 37.13804 29.79516 38034 ft 422 kts 287°
2026-05-04 20:25 37.15312 29.72398 38037 ft 423 kts 287°
2026-05-04 20:26 37.16818 29.65263 38040 ft 423 kts 287°
2026-05-04 20:26 37.18317 29.58122 38046 ft 424 kts 286°
2026-05-04 20:27 37.19808 29.50960 38049 ft 424 kts 286°
2026-05-04 20:27 37.21298 29.43790 38055 ft 425 kts 286°
2026-05-04 20:28 37.22789 29.36597 38059 ft 426 kts 286°
2026-05-04 20:28 37.24275 29.29435 38063 ft 427 kts 286°
2026-05-04 20:29 37.25769 29.22202 38046 ft 428 kts 287°
2026-05-04 20:29 37.27255 29.14966 38053 ft 428 kts 287°
2026-05-04 20:30 37.28739 29.07724 38063 ft 429 kts 287°
2026-05-04 20:30 37.30220 29.00467 38066 ft 429 kts 287°
2026-05-04 20:31 37.31699 28.93192 38066 ft 430 kts 287°
2026-05-04 20:31 37.33170 28.85929 38048 ft 427 kts 287°
2026-05-04 20:32 37.34625 28.78730 38049 ft 428 kts 287°
2026-05-04 20:32 37.36089 28.71475 38060 ft 428 kts 287°
2026-05-04 20:33 37.37591 28.64243 38055 ft 427 kts 288°
2026-05-04 20:33 37.39092 28.57038 38051 ft 425 kts 288°
2026-05-04 20:34 37.40580 28.49845 38000 ft 426 kts 288°
2026-05-04 20:34 37.41324 28.46235 37748 ft 427 kts 288°
2026-05-04 20:34 37.42067 28.42627 37484 ft 426 kts 288°
2026-05-04 20:35 37.42807 28.39018 37214 ft 426 kts 288°
2026-05-04 20:35 37.43549 28.35398 36935 ft 427 kts 288°
2026-05-04 20:35 37.44293 28.31764 36678 ft 429 kts 288°
2026-05-04 20:35 37.45037 28.28122 36419 ft 430 kts 288°
2026-05-04 20:36 37.45783 28.24467 36172 ft 431 kts 288°
2026-05-04 20:36 37.46519 28.20850 35922 ft 432 kts 288°
2026-05-04 20:36 37.47266 28.17175 35674 ft 433 kts 288°
2026-05-04 20:36 37.48013 28.13488 35434 ft 434 kts 288°
2026-05-04 20:37 37.48760 28.09800 35184 ft 436 kts 288°
2026-05-04 20:37 37.49510 28.06093 34607 ft 439 kts 288°
2026-05-04 20:37 37.50270 28.02335 33731 ft 445 kts 287°
2026-05-04 20:37 37.51030 27.98562 33033 ft 443 kts 288°
2026-05-04 20:38 37.51786 27.94794 32248 ft 442 kts 288°
2026-05-04 20:38 37.52538 27.91040 31490 ft 442 kts 288°
2026-05-04 20:38 37.53279 27.87340 30918 ft 437 kts 288°
2026-05-04 20:38 37.54016 27.83645 30354 ft 433 kts 288°
2026-05-04 20:39 37.54747 27.79982 29731 ft 428 kts 288°
2026-05-04 20:39 37.55467 27.76365 29138 ft 423 kts 288°
2026-05-04 20:39 37.56178 27.72791 28560 ft 418 kts 288°
2026-05-04 20:39 37.56880 27.69257 27984 ft 414 kts 288°
2026-05-04 20:40 37.57575 27.65754 27415 ft 409 kts 288°
2026-05-04 20:40 37.58261 27.62289 26851 ft 405 kts 288°
2026-05-04 20:40 37.58941 27.58852 26286 ft 402 kts 288°
2026-05-04 20:40 37.59613 27.55451 25728 ft 398 kts 288°
2026-05-04 20:41 37.60279 27.52074 25171 ft 395 kts 288°
2026-05-04 20:41 37.60939 27.48716 24600 ft 393 kts 288°
2026-05-04 20:41 37.61594 27.45379 24052 ft 390 kts 289°
2026-05-04 20:41 37.62452 27.42177 23433 ft 382 kts 301°
2026-05-04 20:42 37.63881 27.39443 22905 ft 367 kts 316°
2026-05-04 20:42 37.65745 27.37335 22388 ft 355 kts 330°
2026-05-04 20:42 37.67894 27.35912 21878 ft 345 kts 339°
2026-05-04 20:42 37.70060 27.34735 21379 ft 341 kts 339°
2026-05-04 20:43 37.72228 27.33552 20883 ft 336 kts 339°
2026-05-04 20:43 37.74360 27.32367 20382 ft 334 kts 337°
2026-05-04 20:43 37.76379 27.30942 19900 ft 332 kts 330°
2026-05-04 20:43 37.78249 27.29228 19406 ft 331 kts 324°
2026-05-04 20:44 37.79957 27.27280 18912 ft 330 kts 321°
2026-05-04 20:44 37.81626 27.25306 18421 ft 327 kts 321°
2026-05-04 20:44 37.83286 27.23360 17888 ft 323 kts 321°
2026-05-04 20:44 37.84924 27.21438 17414 ft 319 kts 321°
2026-05-04 20:45 37.86541 27.19541 16935 ft 315 kts 321°
2026-05-04 20:45 37.88135 27.17667 16461 ft 311 kts 321°
2026-05-04 20:45 37.89712 27.15810 15993 ft 309 kts 321°
2026-05-04 20:45 37.91366 27.13872 15507 ft 338 kts 320°
2026-05-04 20:46 37.93127 27.11805 14984 ft 350 kts 320°
2026-05-04 20:46 37.94921 27.09687 14452 ft 352 kts 320°
2026-05-04 20:46 37.96700 27.07580 13924 ft 348 kts 319°
2026-05-04 20:46 37.98425 27.05534 13541 ft 337 kts 320°
2026-05-04 20:47 38.00105 27.03538 13161 ft 326 kts 320°
2026-05-04 20:47 38.01738 27.01599 12773 ft 317 kts 320°
2026-05-04 20:47 38.03339 26.99764 12513 ft 303 kts 325°
2026-05-04 20:47 38.05069 26.98358 12226 ft 290 kts 335°
2026-05-04 20:48 38.06912 26.97438 11913 ft 280 kts 345°
2026-05-04 20:48 38.08779 26.96875 11614 ft 272 kts 348°
2026-05-04 20:48 38.10596 26.96333 11321 ft 265 kts 348°
2026-05-04 20:48 38.12367 26.95794 11015 ft 258 kts 348°
2026-05-04 20:49 38.14093 26.95267 10715 ft 251 kts 348°
2026-05-04 20:49 38.15784 26.94842 10423 ft 244 kts 358°
2026-05-04 20:49 38.17435 26.95144 10133 ft 239 kts 19°
2026-05-04 20:49 38.18840 26.96232 9819 ft 238 kts 39°
2026-05-04 20:50 38.19803 26.97940 9504 ft 242 kts 59°
2026-05-04 20:50 38.20263 27.00012 9200 ft 243 kts 69°
2026-05-04 20:50 38.20640 27.02093 8885 ft 239 kts 69°
2026-05-04 20:50 38.20894 27.04145 8594 ft 243 kts 85°
2026-05-04 20:51 38.20400 27.06259 8313 ft 255 kts 115°
2026-05-04 20:51 38.19120 27.07852 8029 ft 265 kts 146°
2026-05-04 20:51 38.17383 27.08639 7747 ft 265 kts 164°
2026-05-04 20:51 38.15619 27.09120 7480 ft 262 kts 167°
2026-05-04 20:52 38.13836 27.09564 7206 ft 260 kts 166°
2026-05-04 20:52 38.12067 27.10029 6940 ft 259 kts 166°
2026-05-04 20:52 38.10311 27.10522 6664 ft 258 kts 165°
2026-05-04 20:52 38.08567 27.11035 6387 ft 256 kts 165°
2026-05-04 20:53 38.06846 27.11553 6102 ft 254 kts 165°
2026-05-04 20:53 38.05230 27.12394 5789 ft 248 kts 139°
2026-05-04 20:53 38.04176 27.14047 5490 ft 239 kts 107°
2026-05-04 20:53 38.03956 27.16052 5182 ft 226 kts 76°
2026-05-04 20:54 38.04401 27.17932 4893 ft 221 kts 63°
2026-05-04 20:54 38.05000 27.19725 4587 ft 221 kts 60°
2026-05-04 20:54 38.05929 27.21204 4268 ft 213 kts 32°
2026-05-04 20:54 38.07277 27.21873 3965 ft 208 kts
2026-05-04 20:55 38.08696 27.21644 3695 ft 206 kts 346°
2026-05-04 20:55 38.10077 27.21213 3420 ft 203 kts 346°
2026-05-04 20:55 38.11438 27.20802 3134 ft 200 kts 346°
2026-05-04 20:55 38.12787 27.20400 2845 ft 198 kts 346°
2026-05-04 20:56 38.14120 27.20005 2569 ft 196 kts 346°
2026-05-04 20:56 38.15427 27.19618 2289 ft 195 kts 346°
2026-05-04 20:56 38.16753 27.19223 2087 ft 189 kts 346°
2026-05-04 20:56 38.17966 27.18862 2029 ft 169 kts 345°
2026-05-04 20:57 38.19020 27.18550 1987 ft 142 kts 346°
2026-05-04 20:57 38.19902 27.18286 2004 ft 126 kts 345°
2026-05-04 20:57 38.20744 27.18036 1938 ft 124 kts 345°
2026-05-04 20:57 38.21582 27.17801 1719 ft 123 kts 346°
2026-05-04 20:58 38.22420 27.17569 1488 ft 123 kts 346°
2026-05-04 20:58 38.23252 27.17302 1307 ft 124 kts 344°
2026-05-04 20:58 38.24074 27.17044 1142 ft 119 kts 345°
2026-05-04 20:58 38.24620 27.16878 997 ft 125 kts 346°
2026-05-04 20:59 38.25453 27.16617 871 ft 123 kts 346°
2026-05-04 20:59 38.26554 27.16280 680 ft 123 kts 348°
2026-05-04 20:59 38.27117 27.16123 599 ft 125 kts 347°
2026-05-04 20:59 38.28232 27.15785 418 ft 117 kts 348°
2026-05-04 21:00 38.28895 27.15584 414 ft 71 kts 347°
2026-05-04 21:00 38.29172 27.15499 416 ft 57 kts 346°
2026-05-04 21:00 38.29367 27.15440 413 ft 8 kts 345°
2026-05-04 21:00 38.29388 27.15397 412 ft 8 kts 258°
2026-05-04 21:01 38.29366 27.15290 412 ft 15 kts 258°
2026-05-04 21:01 38.29351 27.15206 411 ft 10 kts 257°
2026-05-04 21:01 38.29335 27.15147 411 ft 7 kts 229°
2026-05-04 21:01 38.29274 27.15151 411 ft 11 kts 168°
2026-05-04 21:02 38.29213 27.15169 408 ft 3 kts 165°
2026-05-04 21:02 38.29192 27.15182 411 ft 4 kts 137°
2026-05-04 21:02 38.29193 27.15225 411 ft 7 kts 78°
2026-05-04 21:02 38.29199 27.15256 411 ft 1 kts 76°
2026-05-04 21:03 38.29200 27.15261 411 ft 0 kts 76°